Simultaneous Nadir Overpasses (SNOs) Predictions

Prediction of SNOs between GOES-16 and AQUA Satellite Orbit:

Table of predicted SNOs for the next 14.0 days since TLE Epoch: 11/4/2023
Index Date Time (GOES-16) GOES-16 Lat,Lon AQUA Lat,Lon Distance(km) Time Diff (sec)
1 11/04/2023 18:57:15 -0.02, -75.21 0.04, -74.91 33.93 80
2 11/06/2023 18:42:20 -0.02, -75.23 0.81, -71.27 449.39 80
3 11/07/2023 07:02:53 0.01, -75.22 0.24, -76.25 116.97 80
4 11/09/2023 06:45:17 0.01, -75.24 -0.54, -72.60 299.89 80
5 11/09/2023 19:05:59 -0.01, -75.25 -0.51, -77.62 268.63 80
6 11/11/2023 18:53:42 -0.01, -75.28 0.27, -73.97 149.45 80
7 11/12/2023 07:14:14 0.01, -75.28 0.81, -78.94 415.92 80
8 11/14/2023 06:56:36 0.01, -75.31 0.02, -75.28 3.00 80
9 11/16/2023 06:41:37 0.01, -75.33 -0.76, -71.62 421.61 80
10 11/16/2023 19:02:18 -0.01, -75.35 -0.29, -76.63 146.68 80
